ICE435 EGPH-BIKF

Flight info

Callsign ICE435
Flight time 1h 57m
Altitude 37000
Route GRICE P600 ASNUD DCT NESDI DCT RUGID DCT ATSIX/M078F380 DCT 6100N01234W DCT ALDAN DCT ASRUN ASRUN4M
Aircraft B38M/M-SDE1FGHILORVWXY/HB1

Departure

Time 2026-04-26 15:04
Airport Edinburgh Airport (EGPH)

Arrival

Time 2026-04-26 17:02
Airport Keflavik International Airport (BIKF)
Time Latitude Longitude Altitude Speed Heading
2026-04-26 14:33 55.94612 -3.36632 117 ft 0 kts 89°
2026-04-26 14:55 55.94611 -3.36657 115 ft 4 kts 84°
2026-04-26 14:55 55.94605 -3.36703 114 ft 4 kts 62°
2026-04-26 14:55 55.94589 -3.36732 116 ft 4 kts
2026-04-26 14:56 55.94583 -3.36733 116 ft 2 kts 358°
2026-04-26 14:58 55.94584 -3.36733 116 ft 0 kts 358°
2026-04-26 14:59 55.94585 -3.36733 116 ft 0 kts 358°
2026-04-26 14:59 55.94586 -3.36733 116 ft 1 kts 358°
2026-04-26 14:59 55.94613 -3.36735 123 ft 8 kts 358°
2026-04-26 14:59 55.94657 -3.36737 119 ft 11 kts 359°
2026-04-26 15:00 55.94768 -3.36764 115 ft 13 kts 340°
2026-04-26 15:00 55.94864 -3.36783 118 ft 15 kts 347°
2026-04-26 15:00 55.94920 -3.36906 117 ft 15 kts 251°
2026-04-26 15:00 55.94864 -3.37073 116 ft 16 kts 238°
2026-04-26 15:01 55.94803 -3.37258 116 ft 18 kts 240°
2026-04-26 15:01 55.94737 -3.37448 115 ft 19 kts 237°
2026-04-26 15:01 55.94663 -3.37670 118 ft 21 kts 239°
2026-04-26 15:01 55.94585 -3.37899 115 ft 22 kts 239°
2026-04-26 15:02 55.94502 -3.38144 118 ft 24 kts 239°
2026-04-26 15:02 55.94415 -3.38399 115 ft 25 kts 238°
2026-04-26 15:02 55.94325 -3.38669 118 ft 26 kts 238°
2026-04-26 15:02 55.94288 -3.38860 118 ft 9 kts 310°
2026-04-26 15:03 55.94347 -3.38931 117 ft 12 kts 331°
2026-04-26 15:03 55.94426 -3.38936 114 ft 13 kts 48°
2026-04-26 15:03 55.94444 -3.38887 117 ft 0 kts 58°
2026-04-26 15:03 55.94457 -3.38849 115 ft 24 kts 58°
2026-04-26 15:04 55.94695 -3.38148 115 ft 107 kts 59°
2026-04-26 15:04 55.95214 -3.36619 154 ft 170 kts 59°
2026-04-26 15:04 55.95864 -3.34745 809 ft 189 kts 57°
2026-04-26 15:04 55.96723 -3.32912 1758 ft 194 kts 42°
2026-04-26 15:05 55.97785 -3.31234 2405 ft 219 kts 39°
2026-04-26 15:05 55.98190 -3.30634 2538 ft 229 kts 38°
2026-04-26 15:05 56.00491 -3.27657 3776 ft 251 kts 21°
2026-04-26 15:05 56.02184 -3.26762 4744 ft 257 kts
2026-04-26 15:06 56.03991 -3.26796 5591 ft 266 kts 343°
2026-04-26 15:06 56.05653 -3.28235 5630 ft 263 kts 314°
2026-04-26 15:06 56.06680 -3.30881 5583 ft 260 kts 291°
2026-04-26 15:06 56.07287 -3.33903 5960 ft 253 kts 283°
2026-04-26 15:07 56.08071 -3.40204 7890 ft 261 kts 279°
2026-04-26 15:07 56.08481 -3.43404 8853 ft 266 kts 280°
2026-04-26 15:07 56.08900 -3.46596 9854 ft 267 kts 279°
2026-04-26 15:08 56.09358 -3.49839 10695 ft 274 kts 281°
2026-04-26 15:08 56.09929 -3.53220 11115 ft 296 kts 290°
2026-04-26 15:08 56.11133 -3.56384 11479 ft 323 kts 313°
2026-04-26 15:08 56.13102 -3.58624 11806 ft 352 kts 336°
2026-04-26 15:09 56.15582 -3.59268 12273 ft 373 kts
2026-04-26 15:09 56.18099 -3.57935 12973 ft 384 kts 27°
2026-04-26 15:09 56.20376 -3.55403 13727 ft 388 kts 28°
2026-04-26 15:09 56.22726 -3.52948 14397 ft 391 kts 27°
2026-04-26 15:10 56.25105 -3.50511 15049 ft 395 kts 27°
2026-04-26 15:10 56.26701 -3.48892 15456 ft 398 kts 27°
2026-04-26 15:10 56.29969 -3.45604 16260 ft 404 kts 26°
2026-04-26 15:10 56.32406 -3.43158 16863 ft 408 kts 26°
2026-04-26 15:11 56.34928 -3.40625 17463 ft 412 kts 26°
2026-04-26 15:11 56.37412 -3.38126 18048 ft 415 kts 26°
2026-04-26 15:11 56.39942 -3.35579 18598 ft 419 kts 26°
2026-04-26 15:11 56.42504 -3.32996 19093 ft 422 kts 26°
2026-04-26 15:12 56.45077 -3.30394 19611 ft 425 kts 26°
2026-04-26 15:12 56.47665 -3.27773 20105 ft 428 kts 26°
2026-04-26 15:12 56.50270 -3.25132 20595 ft 431 kts 26°
2026-04-26 15:12 56.52897 -3.22462 21098 ft 434 kts 26°
2026-04-26 15:13 56.55538 -3.19773 21571 ft 437 kts 26°
2026-04-26 15:13 56.58204 -3.17055 22028 ft 440 kts 26°
2026-04-26 15:13 56.60895 -3.14363 22493 ft 442 kts 22°
2026-04-26 15:13 56.63800 -3.12654 22927 ft 437 kts
2026-04-26 15:14 56.66807 -3.12473 23344 ft 431 kts 349°
2026-04-26 15:14 56.69695 -3.13765 23713 ft 426 kts 333°
2026-04-26 15:14 56.72298 -3.16288 24085 ft 422 kts 320°
2026-04-26 15:14 56.74481 -3.19802 24406 ft 419 kts 308°
2026-04-26 15:15 56.76385 -3.23824 24777 ft 420 kts 306°
2026-04-26 15:15 56.78210 -3.28001 25138 ft 421 kts 304°
2026-04-26 15:15 56.79982 -3.32263 25549 ft 422 kts 303°
2026-04-26 15:15 56.81712 -3.36527 25896 ft 424 kts 302°
2026-04-26 15:16 56.83459 -3.40893 26263 ft 426 kts 302°
2026-04-26 15:16 56.85202 -3.45290 26615 ft 428 kts 302°
2026-04-26 15:16 56.86951 -3.49727 26960 ft 430 kts 302°
2026-04-26 15:16 56.88113 -3.52681 27222 ft 431 kts 301°
2026-04-26 15:17 56.89869 -3.57151 27534 ft 434 kts 301°
2026-04-26 15:17 56.91058 -3.60184 27769 ft 435 kts 301°
2026-04-26 15:17 56.93407 -3.66188 28206 ft 438 kts 301°
2026-04-26 15:17 56.95183 -3.70738 28527 ft 440 kts 301°
2026-04-26 15:18 56.96965 -3.75310 28898 ft 440 kts 301°
2026-04-26 15:18 56.98725 -3.79836 29354 ft 439 kts 301°
2026-04-26 15:18 57.00495 -3.84393 29797 ft 438 kts 301°
2026-04-26 15:18 57.02257 -3.88942 30257 ft 437 kts 301°
2026-04-26 15:19 57.04016 -3.93489 30614 ft 436 kts 301°
2026-04-26 15:19 57.05774 -3.98043 30988 ft 435 kts 301°
2026-04-26 15:19 57.07521 -4.02576 31348 ft 434 kts 301°
2026-04-26 15:19 57.09261 -4.07100 31695 ft 433 kts 301°
2026-04-26 15:20 57.10999 -4.11623 32049 ft 432 kts 300°
2026-04-26 15:20 57.12640 -4.16218 32422 ft 428 kts 296°
2026-04-26 15:20 57.14160 -4.20862 32743 ft 427 kts 296°
2026-04-26 15:20 57.15704 -4.25526 33079 ft 427 kts 296°
2026-04-26 15:21 57.17253 -4.30183 33394 ft 426 kts 296°
2026-04-26 15:21 57.18809 -4.34858 33711 ft 426 kts 296°
2026-04-26 15:21 57.20356 -4.39509 34026 ft 425 kts 296°
2026-04-26 15:21 57.21899 -4.44154 34323 ft 424 kts 296°
2026-04-26 15:22 57.23438 -4.48797 34558 ft 424 kts 296°
2026-04-26 15:22 57.24978 -4.53451 34776 ft 425 kts 296°
2026-04-26 15:22 57.26518 -4.58116 34998 ft 424 kts 296°
2026-04-26 15:22 57.28055 -4.62781 35199 ft 425 kts 296°
2026-04-26 15:23 57.29595 -4.67464 35428 ft 425 kts 297°
2026-04-26 15:23 57.31131 -4.72146 35568 ft 427 kts 297°
2026-04-26 15:23 57.32652 -4.76788 35730 ft 428 kts 297°
2026-04-26 15:23 57.34197 -4.81513 35934 ft 428 kts 297°
2026-04-26 15:24 57.35742 -4.86246 36113 ft 429 kts 297°
2026-04-26 15:24 57.37521 -4.90725 36299 ft 436 kts 310°
2026-04-26 15:24 57.39725 -4.94589 36489 ft 437 kts 311°
2026-04-26 15:24 57.41927 -4.98505 36610 ft 438 kts 311°
2026-04-26 15:25 57.44133 -5.02389 36813 ft 438 kts 311°
2026-04-26 15:25 57.45604 -5.04966 36932 ft 439 kts 312°
2026-04-26 15:25 57.48555 -5.10129 37168 ft 439 kts 312°
2026-04-26 15:25 57.50778 -5.14022 37341 ft 439 kts 312°
2026-04-26 15:26 57.52999 -5.17916 37502 ft 439 kts 312°
2026-04-26 15:26 57.55219 -5.21817 37700 ft 439 kts 312°
2026-04-26 15:26 57.57437 -5.25722 37822 ft 439 kts 312°
2026-04-26 15:26 57.59658 -5.29638 37954 ft 439 kts 312°
2026-04-26 15:27 57.61885 -5.33570 38097 ft 439 kts 312°
2026-04-26 15:27 57.64099 -5.37489 38226 ft 438 kts 312°
2026-04-26 15:27 57.68537 -5.45364 38242 ft 439 kts 312°
2026-04-26 15:28 57.72961 -5.53239 38232 ft 439 kts 312°
2026-04-26 15:28 57.77347 -5.61075 38228 ft 438 kts 312°
2026-04-26 15:29 57.81762 -5.68991 38243 ft 439 kts 312°
2026-04-26 15:30 57.90606 -5.84934 38225 ft 440 kts 312°
2026-04-26 15:30 57.94988 -5.92877 38217 ft 440 kts 312°
2026-04-26 15:31 58.01601 -6.04917 38220 ft 440 kts 312°
2026-04-26 15:32 58.07468 -6.15650 38229 ft 441 kts 312°
2026-04-26 15:32 58.12596 -6.25078 38211 ft 442 kts 312°
2026-04-26 15:33 58.16998 -6.33203 38210 ft 442 kts 312°
2026-04-26 15:33 58.21395 -6.41347 38210 ft 442 kts 312°
2026-04-26 15:34 58.25764 -6.49468 38211 ft 441 kts 311°
2026-04-26 15:34 58.30150 -6.57652 38212 ft 442 kts 311°
2026-04-26 15:35 58.34540 -6.65873 38204 ft 443 kts 312°
2026-04-26 15:35 58.38909 -6.74085 38203 ft 444 kts 311°
2026-04-26 15:36 58.43302 -6.82373 38200 ft 444 kts 311°
2026-04-26 15:36 58.47691 -6.90684 38196 ft 444 kts 311°
2026-04-26 15:37 58.52074 -6.99013 38196 ft 444 kts 311°
2026-04-26 15:37 58.56445 -7.07352 38193 ft 444 kts 311°
2026-04-26 15:38 58.60817 -7.15724 38192 ft 444 kts 311°
2026-04-26 15:38 58.65152 -7.24056 38188 ft 443 kts 311°
2026-04-26 15:39 58.69511 -7.32465 38187 ft 443 kts 311°
2026-04-26 15:39 58.73131 -7.39474 38186 ft 443 kts 311°
2026-04-26 15:40 58.78212 -7.49348 38184 ft 443 kts 311°
2026-04-26 15:40 58.82520 -7.57753 38197 ft 444 kts 311°
2026-04-26 15:41 58.86878 -7.66287 38180 ft 444 kts 311°
2026-04-26 15:41 58.91206 -7.74798 38180 ft 444 kts 311°
2026-04-26 15:42 58.95536 -7.83342 38173 ft 444 kts 311°
2026-04-26 15:42 58.99831 -7.91851 38171 ft 444 kts 311°
2026-04-26 15:43 59.04145 -8.00428 38165 ft 444 kts 311°
2026-04-26 15:44 59.10614 -8.13354 38167 ft 445 kts 311°
2026-04-26 15:44 59.17084 -8.26357 38159 ft 445 kts 311°
2026-04-26 15:45 59.23513 -8.39351 38157 ft 445 kts 311°
2026-04-26 15:46 59.29939 -8.52416 38152 ft 444 kts 310°
2026-04-26 15:46 59.33489 -8.59667 38163 ft 444 kts 311°
2026-04-26 15:47 59.40599 -8.74259 38146 ft 445 kts 310°
2026-04-26 15:48 59.44872 -8.83072 38144 ft 445 kts 310°
2026-04-26 15:48 59.49134 -8.91900 38140 ft 445 kts 310°
2026-04-26 15:49 59.53394 -9.00757 38138 ft 445 kts 310°
2026-04-26 15:49 59.57642 -9.09624 38157 ft 445 kts 310°
2026-04-26 15:50 59.61866 -9.18475 38143 ft 446 kts 310°
2026-04-26 15:50 59.66105 -9.27393 38124 ft 444 kts 310°
2026-04-26 15:51 59.70330 -9.36317 38134 ft 444 kts 310°
2026-04-26 15:51 59.74556 -9.45280 38121 ft 444 kts 310°
2026-04-26 15:52 59.78773 -9.54249 38122 ft 444 kts 310°
2026-04-26 15:52 59.82981 -9.63233 38134 ft 444 kts 310°
2026-04-26 15:53 59.87191 -9.72256 38114 ft 445 kts 310°
2026-04-26 15:53 59.91377 -9.81263 38112 ft 445 kts 310°
2026-04-26 15:54 59.95583 -9.90346 38111 ft 445 kts 310°
2026-04-26 15:54 59.99768 -9.99476 38105 ft 444 kts 307°
2026-04-26 15:55 60.03633 -10.09067 38105 ft 443 kts 307°
2026-04-26 15:55 60.07499 -10.18546 38121 ft 442 kts 307°
2026-04-26 15:56 60.11409 -10.28133 38104 ft 444 kts 307°
2026-04-26 15:56 60.15319 -10.37758 38101 ft 444 kts 307°
2026-04-26 15:57 60.19217 -10.47392 38097 ft 444 kts 307°
2026-04-26 15:57 60.23080 -10.56979 38094 ft 444 kts 307°
2026-04-26 15:58 60.26965 -10.66661 38090 ft 444 kts 307°
2026-04-26 15:58 60.30849 -10.76383 38090 ft 444 kts 307°
2026-04-26 15:59 60.34713 -10.86094 38093 ft 443 kts 307°
2026-04-26 15:59 60.38544 -10.95761 38094 ft 443 kts 307°
2026-04-26 16:00 60.42392 -11.05515 38087 ft 443 kts 306°
2026-04-26 16:00 60.46230 -11.15283 38081 ft 443 kts 306°
2026-04-26 16:01 60.50062 -11.25078 38089 ft 443 kts 306°
2026-04-26 16:01 60.53883 -11.34886 38074 ft 443 kts 306°
2026-04-26 16:02 60.57678 -11.44667 38084 ft 444 kts 306°
2026-04-26 16:02 60.61502 -11.54569 38091 ft 444 kts 306°
2026-04-26 16:03 60.65323 -11.64501 38053 ft 444 kts 306°
2026-04-26 16:03 60.69116 -11.74403 38077 ft 443 kts 306°
2026-04-26 16:04 60.72899 -11.84324 38064 ft 443 kts 306°
2026-04-26 16:04 60.76652 -11.94207 38065 ft 443 kts 306°
2026-04-26 16:05 60.80426 -12.04190 38080 ft 443 kts 306°
2026-04-26 16:05 60.84204 -12.14224 38064 ft 444 kts 306°
2026-04-26 16:06 60.87336 -12.22579 38055 ft 444 kts 306°
2026-04-26 16:06 60.91712 -12.34295 38059 ft 444 kts 306°
2026-04-26 16:07 60.95471 -12.44397 38063 ft 444 kts 306°
2026-04-26 16:07 60.98610 -12.52866 38059 ft 443 kts 306°
2026-04-26 16:08 61.02304 -12.63015 38056 ft 442 kts 305°
2026-04-26 16:08 61.05989 -12.73180 38055 ft 442 kts 305°
2026-04-26 16:09 61.09649 -12.83315 38048 ft 442 kts 305°
2026-04-26 16:09 61.13319 -12.93520 38052 ft 442 kts 304°
2026-04-26 16:10 61.16981 -13.03748 38051 ft 442 kts 304°
2026-04-26 16:10 61.20637 -13.14006 38051 ft 442 kts 304°
2026-04-26 16:11 61.24286 -13.24287 38046 ft 442 kts 304°
2026-04-26 16:11 61.27904 -13.34530 38053 ft 442 kts 304°
2026-04-26 16:12 61.31541 -13.44871 38047 ft 442 kts 304°
2026-04-26 16:12 61.36966 -13.60381 38037 ft 442 kts 304°
2026-04-26 16:13 61.40575 -13.70759 38037 ft 442 kts 304°
2026-04-26 16:13 61.44174 -13.81154 38037 ft 442 kts 304°
2026-04-26 16:14 61.47768 -13.91583 38034 ft 441 kts 304°
2026-04-26 16:15 61.53129 -14.07225 38033 ft 442 kts 304°
2026-04-26 16:15 61.56711 -14.17737 38034 ft 442 kts 304°
2026-04-26 16:16 61.62065 -14.33539 38028 ft 442 kts 304°
2026-04-26 16:16 61.65594 -14.44012 38021 ft 440 kts 303°
2026-04-26 16:17 61.69136 -14.54573 38023 ft 440 kts 303°
2026-04-26 16:17 61.72663 -14.65138 38023 ft 440 kts 303°
2026-04-26 16:18 61.77947 -14.81059 38025 ft 441 kts 303°
2026-04-26 16:19 61.83196 -14.96983 38016 ft 441 kts 303°
2026-04-26 16:20 61.88451 -15.13036 38019 ft 441 kts 303°
2026-04-26 16:20 61.93684 -15.29136 38012 ft 441 kts 303°
2026-04-26 16:21 61.97139 -15.39825 38026 ft 441 kts 303°
2026-04-26 16:21 62.00622 -15.50654 38013 ft 442 kts 303°
2026-04-26 16:22 62.04072 -15.61431 38004 ft 443 kts 302°
2026-04-26 16:22 62.07531 -15.72286 38007 ft 443 kts 302°
2026-04-26 16:23 62.10985 -15.83179 38000 ft 443 kts 302°
2026-04-26 16:23 62.14430 -15.94092 38008 ft 443 kts 302°
2026-04-26 16:24 62.17870 -16.05044 38003 ft 443 kts 302°
2026-04-26 16:24 62.21283 -16.15960 38001 ft 444 kts 302°
2026-04-26 16:25 62.24707 -16.26966 37996 ft 442 kts 302°
2026-04-26 16:25 62.28112 -16.37963 37996 ft 442 kts 302°
2026-04-26 16:26 62.30937 -16.47128 37994 ft 442 kts 302°
2026-04-26 16:26 62.34897 -16.60036 37991 ft 442 kts 302°
2026-04-26 16:27 62.38279 -16.71118 37987 ft 442 kts 302°
2026-04-26 16:27 62.41652 -16.82225 37970 ft 442 kts 302°
2026-04-26 16:28 62.44998 -16.93298 37993 ft 443 kts 302°
2026-04-26 16:28 62.48362 -17.04484 37980 ft 443 kts 301°
2026-04-26 16:29 62.51716 -17.15688 37982 ft 443 kts 301°
2026-04-26 16:29 62.55060 -17.26919 37985 ft 443 kts 301°
2026-04-26 16:30 62.58370 -17.38087 37977 ft 442 kts 301°
2026-04-26 16:30 62.61686 -17.49333 37979 ft 442 kts 301°
2026-04-26 16:31 62.64998 -17.60622 37989 ft 443 kts 301°
2026-04-26 16:31 62.68305 -17.71950 37977 ft 443 kts 301°
2026-04-26 16:32 62.71049 -17.81391 37976 ft 443 kts 301°
2026-04-26 16:32 62.74893 -17.94687 37971 ft 443 kts 301°
2026-04-26 16:33 62.78177 -18.06105 37972 ft 444 kts 301°
2026-04-26 16:33 62.81430 -18.17464 37963 ft 443 kts 300°
2026-04-26 16:34 62.84674 -18.28841 37961 ft 439 kts 300°
2026-04-26 16:34 62.87903 -18.40218 37963 ft 440 kts 300°
2026-04-26 16:35 62.91131 -18.51646 37970 ft 439 kts 300°
2026-04-26 16:35 62.94323 -18.63000 37957 ft 440 kts 300°
2026-04-26 16:36 62.97533 -18.74461 37964 ft 440 kts 301°
2026-04-26 16:36 63.01133 -18.85384 37975 ft 441 kts 304°
2026-04-26 16:37 63.04731 -18.96340 37966 ft 441 kts 304°
2026-04-26 16:37 63.08289 -19.07257 37972 ft 441 kts 304°
2026-04-26 16:38 63.11860 -19.18270 37956 ft 440 kts 304°
2026-04-26 16:38 63.15412 -19.29277 37950 ft 437 kts 304°
2026-04-26 16:39 63.18945 -19.40279 37966 ft 440 kts 303°
2026-04-26 16:39 63.22455 -19.51261 37948 ft 433 kts 303°
2026-04-26 16:40 63.24197 -19.56733 37732 ft 431 kts 303°
2026-04-26 16:40 63.25919 -19.62155 37071 ft 430 kts 303°
2026-04-26 16:40 63.27643 -19.67597 36333 ft 431 kts 303°
2026-04-26 16:40 63.29368 -19.73054 35576 ft 432 kts 303°
2026-04-26 16:41 63.31094 -19.78524 34859 ft 432 kts 303°
2026-04-26 16:41 63.32821 -19.84015 34167 ft 433 kts 303°
2026-04-26 16:41 63.34529 -19.89459 33330 ft 435 kts 304°
2026-04-26 16:41 63.36266 -19.95006 32493 ft 436 kts 304°
2026-04-26 16:42 63.37994 -20.00540 31818 ft 433 kts 304°
2026-04-26 16:42 63.39709 -20.06041 31108 ft 431 kts 304°
2026-04-26 16:42 63.41424 -20.11560 30247 ft 434 kts 304°
2026-04-26 16:42 63.43148 -20.17122 29293 ft 436 kts 304°
2026-04-26 16:43 63.44872 -20.22696 28423 ft 435 kts 304°
2026-04-26 16:43 63.46567 -20.28189 27591 ft 434 kts 304°
2026-04-26 16:43 63.48278 -20.33753 26683 ft 434 kts 303°
2026-04-26 16:43 63.49985 -20.39309 25966 ft 431 kts 303°
2026-04-26 16:44 63.51671 -20.44808 25340 ft 430 kts 303°
2026-04-26 16:44 63.53381 -20.50397 24628 ft 436 kts 303°
2026-04-26 16:44 63.55084 -20.56014 23940 ft 433 kts 302°
2026-04-26 16:44 63.56657 -20.61751 23096 ft 431 kts 297°
2026-04-26 16:45 63.57952 -20.67778 22412 ft 425 kts 294°
2026-04-26 16:45 63.58876 -20.74021 21784 ft 419 kts 281°
2026-04-26 16:45 63.59315 -20.80454 21123 ft 414 kts 279°
2026-04-26 16:45 63.60133 -20.86635 20468 ft 411 kts 289°
2026-04-26 16:46 63.61079 -20.92665 19839 ft 408 kts 288°
2026-04-26 16:46 63.62000 -20.98661 19222 ft 405 kts 288°
2026-04-26 16:46 63.62912 -21.04643 18607 ft 403 kts 288°
2026-04-26 16:46 63.63803 -21.10526 17960 ft 402 kts 288°
2026-04-26 16:47 63.64705 -21.16491 17293 ft 403 kts 287°
2026-04-26 16:47 63.65607 -21.22481 16669 ft 404 kts 287°
2026-04-26 16:47 63.66509 -21.28489 16078 ft 405 kts 287°
2026-04-26 16:47 63.67409 -21.34501 15509 ft 404 kts 286°
2026-04-26 16:48 63.68290 -21.40409 15280 ft 391 kts 285°
2026-04-26 16:48 63.69142 -21.46148 14996 ft 381 kts 285°
2026-04-26 16:48 63.69977 -21.51786 14552 ft 377 kts 284°
2026-04-26 16:48 63.70799 -21.57359 14174 ft 372 kts 286°
2026-04-26 16:49 63.71612 -21.62864 13809 ft 367 kts 283°
2026-04-26 16:49 63.72400 -21.68230 13416 ft 362 kts 285°
2026-04-26 16:49 63.73179 -21.73606 13046 ft 357 kts 282°
2026-04-26 16:49 63.73805 -21.78962 12668 ft 350 kts 280°
2026-04-26 16:50 63.74413 -21.84246 12334 ft 344 kts 282°
2026-04-26 16:50 63.75017 -21.89432 12041 ft 338 kts 282°
2026-04-26 16:50 63.75613 -21.94544 11736 ft 334 kts 282°
2026-04-26 16:50 63.76202 -21.99577 11435 ft 329 kts 280°
2026-04-26 16:51 63.76779 -22.04533 11155 ft 324 kts 279°
2026-04-26 16:51 63.77348 -22.09442 10851 ft 321 kts 280°
2026-04-26 16:51 63.77907 -22.14324 10527 ft 319 kts 282°
2026-04-26 16:51 63.78455 -22.19156 10248 ft 315 kts 282°
2026-04-26 16:52 63.78999 -22.23938 9968 ft 312 kts 280°
2026-04-26 16:52 63.79172 -22.25475 9883 ft 311 kts 280°
2026-04-26 16:52 63.80053 -22.33283 9400 ft 305 kts 281°
2026-04-26 16:52 63.80572 -22.37914 9106 ft 301 kts 281°
2026-04-26 16:53 63.81083 -22.42481 8836 ft 297 kts 281°
2026-04-26 16:53 63.81587 -22.46993 8592 ft 294 kts 281°
2026-04-26 16:53 63.82084 -22.51460 8304 ft 291 kts 281°
2026-04-26 16:53 63.82576 -22.55884 8034 ft 289 kts 280°
2026-04-26 16:54 63.83061 -22.60274 7778 ft 285 kts 280°
2026-04-26 16:54 63.83537 -22.64595 7542 ft 281 kts 281°
2026-04-26 16:54 63.84007 -22.68866 7289 ft 277 kts 280°
2026-04-26 16:54 63.84469 -22.73085 7028 ft 274 kts 281°
2026-04-26 16:55 63.84917 -22.77190 6796 ft 270 kts 280°
2026-04-26 16:55 63.85365 -22.81311 6596 ft 267 kts 280°
2026-04-26 16:55 63.85809 -22.85396 6343 ft 267 kts 281°
2026-04-26 16:55 63.86254 -22.89482 6046 ft 266 kts 281°
2026-04-26 16:56 63.87738 -22.95598 5376 ft 268 kts 303°
2026-04-26 16:56 63.88803 -22.99043 4949 ft 265 kts 303°
2026-04-26 16:56 63.89994 -23.02171 4499 ft 262 kts 325°
2026-04-26 16:57 63.91662 -23.03490 4127 ft 251 kts
2026-04-26 16:57 63.93313 -23.02790 3829 ft 236 kts 24°
2026-04-26 16:57 63.96324 -23.00391 3211 ft 223 kts 24°
2026-04-26 16:58 63.97656 -22.98849 2917 ft 207 kts 49°
2026-04-26 16:58 63.98217 -22.97212 2789 ft 189 kts 72°
2026-04-26 16:58 63.98542 -22.91087 2370 ft 153 kts 96°
2026-04-26 16:59 63.98548 -22.88755 2178 ft 142 kts 97°
2026-04-26 16:59 63.98543 -22.84419 1874 ft 135 kts 98°
2026-04-26 17:00 63.98536 -22.80213 1506 ft 132 kts 97°
2026-04-26 17:00 63.98530 -22.76055 1125 ft 128 kts 96°
2026-04-26 17:00 63.98527 -22.74073 944 ft 122 kts 96°
2026-04-26 17:01 63.98529 -22.72136 787 ft 123 kts 93°
2026-04-26 17:01 63.98538 -22.70087 731 ft 134 kts 95°
2026-04-26 17:01 63.98523 -22.68072 444 ft 121 kts 97°
2026-04-26 17:01 63.98510 -22.66241 219 ft 116 kts 96°
2026-04-26 17:02 63.98508 -22.64375 128 ft 108 kts 95°
2026-04-26 17:02 63.98506 -22.63050 141 ft 47 kts 90°
2026-04-26 17:02 63.98506 -22.62398 149 ft 39 kts 86°
2026-04-26 17:02 63.98513 -22.61835 158 ft 33 kts 89°
2026-04-26 17:03 63.98553 -22.61383 162 ft 27 kts 63°
2026-04-26 17:03 63.98635 -22.61136 165 ft 10 kts 14°
2026-04-26 17:03 63.98702 -22.61125 164 ft 10 kts 359°
2026-04-26 17:03 63.98768 -22.61125 165 ft 9 kts
2026-04-26 17:04 63.98826 -22.61124 165 ft 8 kts 360°
2026-04-26 17:04 63.98890 -22.61123 165 ft 11 kts 359°
2026-04-26 17:04 63.98983 -22.61127 165 ft 15 kts 359°
2026-04-26 17:04 63.99103 -22.61126 163 ft 18 kts
2026-04-26 17:05 63.99173 -22.61255 159 ft 17 kts 275°
2026-04-26 17:05 63.99171 -22.61585 152 ft 24 kts 271°
2026-04-26 17:05 63.99176 -22.61934 144 ft 13 kts 290°
2026-04-26 17:05 63.99224 -22.61985 144 ft 7 kts 355°
2026-04-26 17:06 63.99263 -22.61987 143 ft 5 kts 359°
2026-04-26 17:06 63.99287 -22.61987 144 ft 3 kts
2026-04-26 17:06 63.99310 -22.61987 144 ft 5 kts 360°
2026-04-26 17:06 63.99320 -22.61990 144 ft 0 kts 340°
2026-04-26 17:07 63.99320 -22.61991 144 ft 0 kts 330°
2026-04-26 17:07 63.99321 -22.62000 144 ft 1 kts 297°
2026-04-26 17:07 63.99326 -22.62040 144 ft 1 kts 275°
2026-04-26 17:07 63.99327 -22.62113 144 ft 4 kts 270°
2026-04-26 17:08 63.99327 -22.62140 144 ft 0 kts 270°
2026-04-26 17:08 63.99327 -22.62148 144 ft 1 kts 269°
2026-04-26 17:08 63.99327 -22.62154 144 ft 0 kts 269°